Location: Paris
(48.6709°N, 2.3750°E)
Time: 07:04:08
(UTC+02:00)

YUBILEINY - Pass Details

Date: 05 July 2022
Orbit: 1478 x 1509 km, 82.5° (Epoch: 17 August)

Event Time Altitude Azimuth Distance (km) Brightness Sun altitude
Rises 02:34:48 0° 351° (N) 4,655 ? -18.0°
Reaches altitude 10° 02:41:46 10° 29° (NNE) 3,661 ? -17.8°
Maximum altitude 02:43:19 11° 39° (NE) 3,619 ? -17.7°
Drops below altitude 10° 02:44:52 10° 50° (NE) 3,655 ? -17.7°
Sets 02:51:44 0° 87° (E) 4,620 ? -17.4°
